Regional Weather Roundup
Issued by NWS

Home | Current Version | Previous Version | Graphics & Text | Print | Product List | Glossary On
Versions: 1 2 3 4 5 6 7 8 9 10 11 12 13 14 15 16 17 18 19 20 21 22 23 24 25 26 27 28
000
ASUS45 KSLC 160710
RWRUT

UTAH REGIONAL WEATHER ROUNDUP
NATIONAL WEATHER SERVICE SALT LAKE CITY UT
100 AM MDT WED AUG 16 2017

UTZ001>011-023>025-160800-

NORTHERN UTAH

CITY           SKY/WX    TMP DP  RH WIND       PRES   REMARKS
BRIGHAM CITY   CLEAR     61  46  57 CALM      30.00S
HILL AFB       CLEAR     62  32  33 E14       30.02R
LOGAN          CLEAR     57  50  77 CALM      30.01S
OGDEN          CLEAR     63  35  35 S7        30.00R
SALT LAKE CITY CLEAR     66  36  32 S7        29.98S
TOOELE VALLEY  CLEAR     54  32  43 SE9       30.00S
WENDOVER       CLEAR     66  33  29 CALM      29.99R
HEBER CITY     CLEAR     50  43  76 CALM      30.08S
WEST JORDAN    CLEAR     59  39  48 CALM      30.02S

$$

UTZ011>015-024>027-160800-

CENTRAL/NORTHEAST UTAH

CITY           SKY/WX    TMP DP  RH WIND       PRES   REMARKS
PROVO AIRPORT  CLEAR     62  46  55 CALM      30.02R
MOAB/CANYONLAN CLEAR     69  43  38 SE7       29.98R
DELTA          CLEAR     63  39  42 N6        30.01S
PRICE          CLEAR     55  45  68 N6        30.08R
RICHFIELD      CLEAR     55  45  67 CALM      30.07R
ROOSEVELT      CLEAR     52  46  82 SW5       30.11S
VERNAL         CLOUDY    55  52  89 CALM      30.09R

$$

UTZ013>016-019>022-027-160800-

SOUTHERN UTAH

CITY           SKY/WX    TMP DP  RH WIND       PRES   REMARKS
BRYCE CANYON   CLEAR     49  34  56 W8        30.21R
CEDAR CITY     CLEAR     64  32  30 SE7       30.06S
MILFORD        PTCLDY    63  40  42 S5        30.02R
ST GEORGE      SUNNY     74  36  25 SE7       29.89
HANKSVILLE     CLEAR     63  30  29 CALM      29.99S
KANAB          CLEAR     54  34  47 NE7       30.08R
BLANDING       PTCLDY    56  37  49 N6        30.16R

$$

REGIONAL REPORTS     COLORADO/ARIZONA

CITY           SKY/WX    TMP DP  RH WIND       PRES   REMARKS
CRAIG, CO      CLOUDY    46  43  89 SE3       30.15S
GRAND JUNCTION PTCLDY    65  46  50 CALM      30.03R
RIFLE, CO      CLOUDY    63  45  51 E3        30.09S
MONTROSE, CO   CLEAR     60  37  42 SE5       30.11R
CORTEZ, CO     CLEAR     50  36  58 E6        30.11R
COLORADO CITY    N/A     54  43  66 E3        30.05S
PAGE, AZ       CLEAR     73  25  16 SW8       29.97R
GRAND CANYON   CLEAR     42  28  57 CALM      30.18S
KINGMAN, AZ    CLEAR     70  35  27 SE10      29.93S
FLAGSTAFF, AZ  CLEAR     45  39  79 CALM      30.21S

$$

REGIONAL REPORTS    NEVADA/IDAHO/WYOMING

CITY           SKY/WX    TMP DP  RH WIND       PRES   REMARKS
LAS VEGAS, NV  CLEAR     87  37  17 S6        29.80R
ELY, NY        PTCLDY    58  36  43 SE8       30.10R
ELKO, NV       PTCLDY    62  31  31 E3        30.02R
POCATELLO, ID  CLEAR     52  43  71 E5        30.01S
BURLEY, ID     PTCLDY    53  44  71 S5        29.97S
FORT BRIDGER,    N/A     51  46  84 S10       30.20S
EVANSTON, WY   CLEAR     52  37  56 SE9       30.17F
ROCK SPRINGS,  CLOUDY    51  46  83 S8        30.14F
KEMMERER, WY     N/A     52  39  62 CALM      30.18S

$$




USA.gov is the U.S. government's official web portal to all federal, state and local government web resources and services.